Weather History for Mercury, NV

Change the Weather History Date:

Wednesday, November 27, 2013

  Actual Average Record
Temperature  
Mean Temperature 48 °F -  
Max Temperature 59 °F 56 °F 75 °F (1999)
Min Temperature 37 °F 34 °F 23 °F (2010)
Degree Days  
Heating Degree Days 17    
Growing Degree Days 0 (Base 50)    
Moisture  
Dew Point 32 °F    
Average Humidity 54    
Maximum Humidity 76    
Minimum Humidity 25    
Precipitation  
Precipitation 0.00 in - - ()
Sea Level Pressure  
Sea Level Pressure 30.05 in    
Wind  
Wind Speed 6 mph (East)    
Max Wind Speed 16 mph    
Max Gust Speed -    
Visibility 10 miles    
Events      
Averages and records for this station are not official NWS values.
T = Trace of Precipitation, MM = Missing Value Source: NWS Daily Summary

Daily Weather History Graph

Daily Weather History Graph

Search for Another Location

Airport:

Trip Planner

Search our weather history database for the weather conditions in past years. The results will help you decide how hot, cold, wet, or windy it might be!

Date:

Astronomy

Nov. 27, 2013 Rise Set
Actual Time 6:34 AM PST 4:29 PM PST
Civil Twilight 6:06 AM PST 4:57 PM PST
Nautical Twilight 5:34 AM PST 5:29 PM PST
Astronomical Twilight 5:03 AM PST 6:00 PM PST
Moon 12:49 AM PST (11/27) 1:01 PM PST (11/27)
Length of Visible Light 10h 51m
Length of Day
9h 54m
Waning Crescent, 30% of the Moon is Illuminated
Nov 27
Waning Crescent
Dec 2
New
Dec 9
First Quarter
Dec 17
Full
Dec 25
Last Quarter

Hourly Weather History & Observations

Time (PST) Temp. Windchill Dew Point Humidity Pressure Visibility Wind Dir Wind Speed Gust Speed Precip Events Conditions
12:52 AM 45.0 °F 42.6 °F 32.0 °F 60% 30.14 in 10.0 mi East 4.6 mph - N/A   Clear
1:52 AM 43.0 °F - 30.9 °F 62% 30.13 in 10.0 mi Calm Calm - N/A   Clear
2:52 AM 41.0 °F 39.0 °F 30.9 °F 67% 30.13 in 10.0 mi North 3.5 mph - N/A   Clear
3:52 AM 41.0 °F 38.0 °F 30.9 °F 67% 30.12 in 10.0 mi North 4.6 mph - N/A   Clear
4:52 AM 42.1 °F 38.4 °F 32.0 °F 67% 30.12 in 10.0 mi ENE 5.8 mph - N/A   Clear
5:52 AM 37.9 °F 32.7 °F 30.9 °F 76% 30.11 in 10.0 mi NW 6.9 mph - N/A   Clear
6:52 AM 39.9 °F 36.7 °F 30.9 °F 70% 30.12 in 10.0 mi NNE 4.6 mph - N/A   Clear
7:52 AM 46.0 °F 41.9 °F 33.1 °F 61% 30.13 in 10.0 mi ENE 8.1 mph - N/A   Clear
8:52 AM 48.0 °F - 32.0 °F 54% 30.13 in 10.0 mi NE 8.1 mph - N/A   Clear
9:52 AM 51.1 °F - 32.0 °F 48% 30.12 in 10.0 mi ESE 8.1 mph - N/A   Clear
10:52 AM 55.9 °F - 30.9 °F 39% 30.07 in 10.0 mi ESE 11.5 mph - N/A   Clear
11:52 AM 57.0 °F - 30.9 °F 37% 30.03 in 10.0 mi ESE 13.8 mph - N/A   Clear
12:52 PM 57.0 °F - 32.0 °F 39% 29.99 in 10.0 mi ESE 16.1 mph - N/A   Clear
1:52 PM 57.9 °F - 32.0 °F 37% 29.97 in 10.0 mi ESE 16.1 mph - N/A   Clear
2:52 PM 57.0 °F - 30.9 °F 37% 29.97 in 10.0 mi East 12.7 mph - N/A   Clear
3:52 PM 57.0 °F - 30.9 °F 37% 29.96 in 10.0 mi East 10.4 mph - N/A   Clear
4:52 PM 53.1 °F - 32.0 °F 45% 29.99 in 10.0 mi East 6.9 mph - N/A   Clear
5:52 PM 51.1 °F - 35.1 °F 54% 30.00 in 10.0 mi SE 8.1 mph - N/A   Clear
6:52 PM 48.0 °F - 36.0 °F 63% 30.01 in 10.0 mi SE 6.9 mph - N/A   Partly Cloudy
7:52 PM 46.9 °F - 34.0 °F 61% 30.01 in 10.0 mi East 5.8 mph - N/A   Clear
8:52 PM 46.9 °F - 33.1 °F 59% 30.00 in 10.0 mi Variable 3.5 mph - N/A   Clear
9:52 PM 45.0 °F 41.8 °F 34.0 °F 65% 30.01 in 10.0 mi ESE 5.8 mph - N/A   Clear
10:52 PM 44.1 °F 41.5 °F 34.0 °F 68% 30.00 in 10.0 mi NE 4.6 mph - N/A   Clear
11:52 PM 43.0 °F 40.3 °F 33.1 °F 68% 30.00 in 10.0 mi NNE 4.6 mph - N/A   Clear